Naturita, CO

5:59 PM MST on January 21, 2017 (GMT -0700)
Nucla Hopkins Field Airport

Weather History for KAIB - March, 2014

Change the Weather History Date:

Friday, March 21, 2014

  Actual Average (KTEX) Record (KTEX)
Temperature  
Mean Temperature 46 °F -  
Max Temperature 60 °F 41 °F 62 °F (2004)
Min Temperature 33 °F 22 °F 15 °F (2005)
Degree Days  
Heating Degree Days 18    
Moisture  
Dew Point 12 °F    
Average Humidity 27    
Maximum Humidity 42    
Minimum Humidity 14    
Precipitation  
Precipitation 0.00 in - - ()
Sea Level Pressure  
Sea Level Pressure 30.01 in    
Wind  
Wind Speed 7 mph (ENE)    
Max Wind Speed 13 mph    
Max Gust Speed 20 mph    
Visibility 10 miles    
Events      
Averages and records for this station are not official NWS values.
T = Trace of Precipitation, MM = Missing Value Source: NWS Daily Summary

Daily Weather History Graph

Daily Weather History Graph

Search for Another Location

Airport or City:

Trip Planner

Search our weather history database for the weather conditions in past years. The results will help you decide how hot, cold, wet, or windy it might be!

Date:

Astronomy

Mar. 21, 2014 Rise Set
Actual Time 7:16 AM MDT 7:27 PM MDT
Civil Twilight 6:49 AM MDT 7:53 PM MDT
Nautical Twilight 6:18 AM MDT 8:24 PM MDT
Astronomical Twilight 5:47 AM MDT 8:55 PM MDT
Moon No Moon Rise 10:14 AM MDT (3/21)
Length of Visible Light 13h 03m
Length of Day
12h 11m
Waning Gibbous, 75% of the Moon is Illuminated
Mar 21
Waning Gibbous
Mar 23
Last Quarter
Mar 30
New
Apr 7
First Quarter
Apr 15
Full

Hourly Weather History & Observations

Time (MDT) Temp. Windchill Dew Point Humidity Pressure Visibility Wind Dir Wind Speed Gust Speed Precip Events Conditions
12:15 AM 41.0 °F 36.4 °F 8.6 °F 26% 30.05 in 10.0 mi SE 6.9 mph - N/A   Scattered Clouds
12:35 AM 41.0 °F 35.2 °F 8.6 °F 26% 30.05 in 10.0 mi SE 9.2 mph - N/A   Mostly Cloudy
12:55 AM 41.0 °F 34.7 °F 8.6 °F 26% 30.05 in 10.0 mi ESE 10.4 mph - N/A   Overcast
1:15 AM 39.2 °F 32.0 °F 8.6 °F 28% 30.04 in 10.0 mi East 11.5 mph - N/A   Mostly Cloudy
1:35 AM 39.2 °F 31.6 °F 8.6 °F 28% 30.04 in 10.0 mi East 12.7 mph - N/A   Mostly Cloudy
1:55 AM 39.2 °F 32.0 °F 10.4 °F 31% 30.04 in 10.0 mi ESE 11.5 mph - N/A   Mostly Cloudy
2:15 AM 39.2 °F 32.5 °F 10.4 °F 31% 30.04 in 10.0 mi ESE 10.4 mph - N/A   Mostly Cloudy
2:35 AM 37.4 °F 32.8 °F 8.6 °F 30% 30.04 in 10.0 mi SE 5.8 mph - N/A   Scattered Clouds
2:55 AM 35.6 °F 32.8 °F 10.4 °F 35% 30.03 in 10.0 mi ESE 3.5 mph - N/A   Clear
3:15 AM 35.6 °F 30.7 °F 8.6 °F 33% 30.03 in 10.0 mi East 5.8 mph - N/A   Scattered Clouds
3:35 AM 35.6 °F 28.6 °F 8.6 °F 33% 30.02 in 10.0 mi ESE 9.2 mph - N/A   Clear
3:55 AM 33.8 °F 28.6 °F 8.6 °F 35% 30.02 in 10.0 mi ESE 5.8 mph - N/A   Clear
4:15 AM 33.8 °F - 8.6 °F 35% 30.03 in 10.0 mi Calm Calm - N/A   Clear
4:35 AM 35.6 °F 30.7 °F 10.4 °F 35% 30.02 in 10.0 mi East 5.8 mph - N/A   Scattered Clouds
4:55 AM 35.6 °F - 10.4 °F 35% 30.02 in 10.0 mi Calm Calm - N/A   Mostly Cloudy
5:15 AM 35.6 °F 32.8 °F 10.4 °F 35% 30.03 in 10.0 mi East 3.5 mph - N/A   Mostly Cloudy
5:35 AM 33.8 °F 29.6 °F 10.4 °F 38% 30.02 in 10.0 mi East 4.6 mph - N/A   Mostly Cloudy
5:55 AM 33.8 °F 27.0 °F 10.4 °F 38% 30.02 in 10.0 mi East 8.1 mph - N/A   Scattered Clouds
6:15 AM 33.8 °F 29.6 °F 10.4 °F 38% 30.02 in 10.0 mi East 4.6 mph - N/A   Scattered Clouds
6:35 AM 33.8 °F 28.6 °F 10.4 °F 38% 30.03 in 10.0 mi East 5.8 mph - N/A   Scattered Clouds
6:55 AM 33.8 °F 27.0 °F 10.4 °F 38% 30.03 in 10.0 mi East 8.1 mph - N/A   Mostly Cloudy
7:15 AM 33.8 °F 29.6 °F 12.2 °F 41% 30.03 in 10.0 mi SE 4.6 mph - N/A   Scattered Clouds
7:35 AM 33.8 °F 27.7 °F 12.2 °F 41% 30.04 in 10.0 mi ESE 6.9 mph - N/A   Clear
7:55 AM 33.8 °F 29.6 °F 12.2 °F 41% 30.04 in 10.0 mi ESE 4.6 mph - N/A   Scattered Clouds
8:15 AM 35.6 °F 29.9 °F 10.4 °F 35% 30.04 in 10.0 mi East 6.9 mph - N/A   Clear
8:35 AM 35.6 °F - 12.2 °F 38% 30.04 in 10.0 mi Calm Calm - N/A   Scattered Clouds
8:55 AM 41.0 °F 38.0 °F 10.4 °F 29% 30.04 in 10.0 mi East 4.6 mph - N/A   Scattered Clouds
9:15 AM 41.0 °F - 12.2 °F 31% 30.04 in 10.0 mi Calm Calm - N/A   Scattered Clouds
9:35 AM 42.8 °F 40.1 °F 10.4 °F 27% 30.04 in 10.0 mi East 4.6 mph - N/A   Scattered Clouds
9:55 AM 44.6 °F - 10.4 °F 25% 30.04 in 10.0 mi Calm Calm - N/A   Scattered Clouds
10:15 AM 46.4 °F - 10.4 °F 23% 30.04 in 10.0 mi Calm Calm - N/A   Clear
10:35 AM 48.2 °F - 10.4 °F 22% 30.04 in 10.0 mi Calm Calm - N/A   Clear
10:55 AM 50.0 °F - 12.2 °F 22% 30.04 in 10.0 mi Calm Calm - N/A   Clear
11:15 AM 51.8 °F - 8.6 °F 18% 30.03 in 10.0 mi WSW 3.5 mph - N/A   Scattered Clouds
11:35 AM 53.6 °F - 6.8 °F 15% 30.02 in 10.0 mi Calm Calm - N/A   Scattered Clouds
11:55 AM 55.4 °F - 8.6 °F 15% 30.02 in 10.0 mi WNW 4.6 mph - N/A   Clear
12:15 PM 57.2 °F - 8.6 °F 14% 30.01 in 10.0 mi West 6.9 mph - N/A   Clear
12:35 PM 59.0 °F - 8.6 °F 14% 30.01 in 10.0 mi NNW 3.5 mph - N/A   Clear
12:55 PM 59.0 °F - 8.6 °F 14% 30.00 in 10.0 mi West 5.8 mph - N/A   Clear
1:15 PM 60.8 °F - 10.4 °F 14% 30.00 in 10.0 mi NW 9.2 mph - N/A   Clear
1:35 PM 59.0 °F - 10.4 °F 15% 30.00 in 10.0 mi NNW 11.5 mph - N/A   Clear
1:55 PM 59.0 °F - 10.4 °F 15% 29.99 in 10.0 mi North 9.2 mph - N/A   Clear
2:15 PM 59.0 °F - 10.4 °F 15% 29.98 in 10.0 mi North 8.1 mph - N/A   Scattered Clouds
2:35 PM 57.2 °F - 10.4 °F 16% 29.98 in 10.0 mi NNW 11.5 mph - N/A   Scattered Clouds
2:55 PM 57.2 °F - 10.4 °F 16% 29.98 in 10.0 mi NNW 9.2 mph - N/A   Scattered Clouds
3:15 PM 55.4 °F - 10.4 °F 17% 29.97 in 10.0 mi NNW 9.2 mph - N/A   Mostly Cloudy
3:35 PM 57.2 °F - 10.4 °F 16% 29.97 in 10.0 mi North 10.4 mph - N/A   Mostly Cloudy
3:55 PM 57.2 °F - 10.4 °F 16% 29.97 in 10.0 mi NNW 9.2 mph - N/A   Clear
4:15 PM 57.2 °F - 10.4 °F 16% 29.96 in 10.0 mi NW 8.1 mph 16.1 mph N/A   Clear
4:35 PM 59.0 °F - 12.2 °F 16% 29.96 in 10.0 mi NW 5.8 mph 17.3 mph N/A   Clear
4:55 PM 59.0 °F - 12.2 °F 16% 29.95 in 10.0 mi NNW 10.4 mph - N/A   Clear
5:15 PM 59.0 °F - 12.2 °F 16% 29.96 in 10.0 mi NW 9.2 mph 19.6 mph N/A   Clear
5:35 PM 57.2 °F - 12.2 °F 17% 29.96 in 10.0 mi WNW 11.5 mph - N/A   Scattered Clouds
5:55 PM 55.4 °F - 14.0 °F 20% 29.96 in 10.0 mi NW 11.5 mph - N/A   Mostly Cloudy
6:15 PM 55.4 °F - 14.0 °F 20% 29.97 in 10.0 mi NW 10.4 mph - N/A   Overcast
6:35 PM 53.6 °F - 15.8 °F 22% 29.97 in 10.0 mi NW 5.8 mph - N/A   Overcast
6:55 PM 53.6 °F - 17.6 °F 24% 29.96 in 10.0 mi NW 5.8 mph - N/A   Overcast
7:15 PM 51.8 °F - 17.6 °F 26% 29.96 in 10.0 mi NW 4.6 mph - N/A   Overcast
7:35 PM 51.8 °F - 17.6 °F 26% 29.97 in 10.0 mi NNW 4.6 mph - N/A   Mostly Cloudy
7:55 PM 51.8 °F - 17.6 °F 26% 29.97 in 10.0 mi NNW 3.5 mph - N/A   Scattered Clouds
8:15 PM 51.8 °F - 15.8 °F 24% 29.97 in 10.0 mi Calm Calm - N/A   Clear
8:35 PM 51.8 °F - 15.8 °F 24% 29.97 in 10.0 mi Calm Calm - N/A   Clear
8:55 PM 46.4 °F 42.9 °F 17.6 °F 32% 29.98 in 10.0 mi East 6.9 mph - N/A   Clear
9:15 PM 42.8 °F 37.5 °F 17.6 °F 36% 29.98 in 10.0 mi East 9.2 mph - N/A   Clear
9:35 PM 41.0 °F 35.2 °F 17.6 °F 39% 29.98 in 10.0 mi East 9.2 mph - N/A   Clear
9:55 PM 41.0 °F 34.3 °F 17.6 °F 39% 29.99 in 10.0 mi East 11.5 mph - N/A   Clear
10:15 PM 41.0 °F 34.3 °F 17.6 °F 39% 29.99 in 10.0 mi East 11.5 mph - N/A   Clear
10:35 PM 41.0 °F 34.7 °F 17.6 °F 39% 29.99 in 10.0 mi East 10.4 mph - N/A   Clear
10:55 PM 41.0 °F 34.3 °F 17.6 °F 39% 29.99 in 10.0 mi East 11.5 mph - N/A   Clear
11:15 PM 41.0 °F 34.7 °F 17.6 °F 39% 30.00 in 10.0 mi ESE 10.4 mph - N/A   Clear
11:35 PM 39.2 °F 32.5 °F 17.6 °F 42% 29.99 in 10.0 mi East 10.4 mph - N/A   Clear
11:55 PM 39.2 °F 33.0 °F 17.6 °F 42% 29.99 in 10.0 mi East 9.2 mph - N/A   Clear